Preview of NWS' New Version of Forecast
This preview is not operational and should not be used for support decisions.

Regional Weather Roundup (RWR)

Issued by National Weather Service (NWS)

                            
000
ASUS43 KBIS 220210
RWRND 

NORTH DAKOTA REGIONAL WEATHER ROUNDUP
NATIONAL WEATHER SERVICE BISMARCK ND
900 PM CDT SUN JUL 21 2019

NOTE: "FAIR" INDICATES FEW OR NO CLOUDS BELOW 12,000 FEET WITH NO
SIGNIFICANT WEATHER AND/OR OBSTRUCTIONS TO VISIBILITY.


NDZ001>003-009>011-017-220300-
NORTHWEST NORTH DAKOTA
  
CITY           SKY/WX    TMP DP  RH WIND       PRES   REMARKS
WILLISTON      CLEAR     74  52  46 N6        30.24S                  
MINOT          CLEAR     69  58  67 E3        30.23S                  
$$
 
NDZ018>021-031>035-040>046-220300-
SOUTHWEST NORTH DAKOTA
  
CITY           SKY/WX    TMP DP  RH WIND       PRES   REMARKS
BISMARCK       CLEAR     67  60  78 S3        30.24S                  
DICKINSON      CLEAR     69  54  58 NE3       30.25R                  
GARRISON         N/A     67  58  72 E6        30.24R                  
HETTINGER ARPT CLEAR     69  57  65 CALM      30.28S                  
$$
 
NDZ004>008-012>016-024-026-027-054-220300-
NORTHEAST NORTH DAKOTA
  
CITY           SKY/WX    TMP DP  RH WIND       PRES   REMARKS
GRAND FORKS    CLEAR     65  52  62 N7        30.19S                  
DEVILS LAKE    CLEAR     66  53  63 NE6       30.24S                  
$$
 
NDZ022-023-025-028>030-036>039-047>053-220300-
SOUTHEAST NORTH DAKOTA
  
CITY           SKY/WX    TMP DP  RH WIND       PRES   REMARKS
FARGO          CLEAR     68  55  63 N7        30.18S                  
JAMESTOWN      CLEAR     65  59  81 N5        30.22S                  
$$